#timestamp,LO_Frequency,Hit,StdDev 
1716739215.8,286046996.7,Y
1716739235.7,286046998.1,P
1716739255.5,286046996.5,P
1716739275.3,286046999.3,N
1716739295.2,286046998.4,N
1716739315.0,286046998.7,N
1716739315.9,286046998.7,N
1716739335.8,286046998.8,N
1716739355.6,286046999.1,N
1716739375.4,286046999.1,N
1716739395.3,286046998.8,N
1716739415.1,286046998.3,N
1716739435.8,286046998.9,N
1716739455.7,286046999.4,N
1716739475.5,286046998.8,N
1716739495.4,286046998.3,N
1716739515.2,286046999.3,N
1716739535.0,286046999.0,N
1716739535.9,286046999.0,N
1716739555.8,286046999.4,N
1716739575.6,286046996.5,Y
1716739595.4,286046999.5,P
1716739615.3,286046997.0,P
1716739635.1,286046999.6,N
1716739655.9,286046999.4,N
1716739675.7,286046999.4,N
1716739695.5,286046999.6,N
1716739715.4,286046999.6,N
1716739765.2,286046996.6,E
1716739775.2,286046998.6,N
1716739795.0,286047002.5,P
1716739795.9,286047002.5,N
1716739815.7,286047002.3,N
1716739835.6,286047002.4,N
1716739855.4,286047002.4,N
1716739875.3,286047002.6,N
1716739895.1,286047002.6,N
1716739896.0,286047002.6,N
1716739915.8,286047002.4,N
1716739935.7,286047000.2,N
1716739955.5,286047000.3,N
1716739975.3,286046999.9,N
1716739995.2,286047000.0,N
1716740015.0,286047000.5,N
1716740015.9,286047000.5,N
1716740035.8,286047000.0,N
1716740055.6,286047000.2,N
1716740075.4,286047000.5,N
1716740095.3,286047001.2,N
1716740115.1,286047001.1,N
1716740135.8,286047001.1,N
1716740155.7,286046998.5,N
1716740175.5,286046998.6,N
1716740195.4,286046998.3,N
1716740215.2,286046998.6,N
1716740235.0,286047000.9,N
1716740235.9,286047000.9,N
1716740255.8,286047000.8,N
1716740275.6,286046998.5,N
1716740295.4,286046998.5,N
1716740315.3,286046998.5,N
1716740335.1,286046998.2,N
1716740355.8,286046998.2,N
1716740375.7,286047001.0,N
1716740395.5,286047000.8,N
1716740415.4,286046998.6,N
1716740435.2,286046998.5,N
1716740455.0,286047000.8,N
1716740455.9,286047000.8,N
1716740475.8,286047000.8,N
1716740495.6,286046998.3,N
1716740515.4,286046998.2,N
1716740535.3,286046998.4,N
1716740555.1,286046998.1,N
1716740575.9,286046999.4,N
1716740595.7,286046999.3,N
1716740615.5,286046999.3,N
1716740635.4,286046999.3,N
1716740655.2,286046999.5,N
1716740675.0,286046998.9,N
1716740675.9,286046998.9,N
1716740695.8,286046999.3,N
1716740715.6,286046998.8,N
1716740735.5,286046999.3,N
1716740755.3,286046998.8,N
1716740775.1,286046999.1,N
1716740795.9,286046999.1,N
1716740815.7,286046998.7,N
1716740835.5,286046999.3,N
1716740855.4,286046999.3,N
1716740875.2,286046999.4,N
1716740895.1,286046999.0,N
1716740896.0,286046999.0,N
1716740915.8,286046998.4,N
1716740935.6,286046998.8,N
1716740955.5,286046998.5,N
1716740975.3,286046998.7,N
1716740995.1,286046998.5,N
1716741015.9,286046998.4,N
1716741035.7,286046999.0,N
1716741055.6,286046998.3,Y
1716741075.4,286046998.4,P
1716741095.2,286046998.3,P
1716741115.1,286046998.4,P
1716741116.0,286046998.4,Y
1716741135.8,286047000.5,P
1716741155.6,286047000.4,N
1716741175.5,286047000.9,N
1716741195.3,286047000.9,N
1716741215.2,286047001.0,N
1716741235.9,286047000.4,N
1716741255.7,286047000.2,N
1716741275.6,286047000.3,N
1716741295.4,286047000.5,N
1716741315.2,286047000.3,N
1716741335.1,286047000.9,N
1716741336.0,286047000.9,N
1716741355.8,286047000.6,N
1716741375.7,286047001.0,N
1716741395.5,286047000.5,N
1716741415.3,286047002.7,Y
1716741435.2,286047000.1,P
1716741455.0,286047000.9,P
1716741455.9,286047000.9,N
1716741475.8,286047000.3,N
1716741495.6,286047000.8,N
1716741515.4,286047000.0,N
1716741535.3,286047000.6,N
1716741555.1,286046999.7,N
1716741575.8,286046999.8,N
1716741595.7,286047000.3,N
1716741615.5,286047002.8,Y
1716741635.4,286047000.6,P
1716741655.2,286046999.8,N
1716741675.0,286046999.7,N
1716741675.9,286046999.7,N
1716741695.8,286046999.9,N
1716741715.6,286047000.2,N
1716741735.4,286047000.0,N
1716741755.3,286047000.2,N
1716741775.1,286047000.3,N
1716741795.9,286046999.8,N
1716741815.7,286046999.8,N
1716741835.5,286047000.2,N
1716741855.4,286046999.9,N
1716741875.2,286047002.7,Y
1716741895.0,286046999.9,P
1716741896.0,286046999.9,N
1716741915.8,286047002.8,P
1716741935.6,286046999.7,N
1716741955.5,286047000.2,N
1716741975.3,286047000.1,N
1716741995.1,286046999.7,N
1716742015.9,286047000.3,N
1716742035.7,286047002.8,Y
1716742055.6,286047000.4,P
1716742075.4,286046999.8,P
1716742095.2,286047002.8,P
1716742115.1,286047000.2,N
1716742116.0,286047000.2,N
1716742135.8,286047001.9,N
1716742155.6,286047001.8,N
1716742175.5,286047002.3,N
1716742195.3,286047002.3,N
1716742215.1,286047001.6,N
1716742235.9,286047001.9,N
1716742255.7,286047002.4,N
1716742275.6,286046999.8,N
1716742295.4,286047002.6,N
1716742315.2,286047002.0,N
1716742335.1,286047001.3,N
1716742336.0,286047001.3,N
1716742355.8,286047002.0,N
1716742375.6,286047002.2,N
1716742395.5,286047001.7,N
1716742415.3,286047002.1,N
1716742435.2,286047002.1,N
1716742455.9,286047002.2,N
1716742475.7,286047002.2,N
1716742495.6,286047001.9,N
1716742515.4,286047003.9,Y
1716742535.2,286047002.5,P
1716742555.1,286047002.1,P
1716742556.0,286047002.1,P
1716742575.8,286047002.1,Y
1716742595.7,286047000.5,P
1716742615.5,286046998.1,N
1716742635.3,286046999.8,N
1716742655.2,286047000.3,N
1716742675.0,286047002.5,N
1716742675.9,286047002.5,N
1716742695.8,286046999.7,N
1716742715.6,286046999.7,N
1716742735.4,286047002.7,N
1716742755.3,286047002.3,N
1716742775.1,286047002.6,N
1716742795.8,286047002.3,N
